Date String (YYYY-MM-DD hh:mm:ss) UTC,Instrument flags,Ambient pressure (hPa),Sample flow (lpm),Bypass flow (lpm),Sample temperature (°C),Ambient temperature (°C),ASC tube jacket temperature (°C),LED temperature (°C),Box temperature (°C),Sample RH (%),Span deviation,Mass concentration (μg/m³),Mass concentration (μg/m³),Mass concentration (μg/m³)
DateTimeUTC,F1_M11,P_M11,Q1_M11,Q2_M11,T1_M11,T2_M11,T3_M11,T4_M11,T5_M11,U1_M11,ZSPAN_M11,X0_M11,X2_M11,X1_M11
2023-02-09 01:00:00,,0821.8,4.97,0.00,22.9,21.3,00.0,31.9,24.4,09.3,0000.0,0005.30,0001.36,0000.84
2023-02-09 01:01:00,,0821.8,5.01,0.00,22.9,21.2,00.0,31.8,24.4,09.4,0000.0,0003.44,0001.32,0000.84
2023-02-09 01:02:00,,0821.8,5.01,0.00,22.8,21.2,00.0,31.8,24.4,09.4,0000.0,0003.20,0001.34,0000.84
2023-02-09 01:03:00,,0821.8,5.00,0.00,22.8,21.2,00.0,31.8,24.4,09.5,0000.0,0003.31,0001.38,0000.84
2023-02-09 01:04:00,,0821.9,4.98,0.00,22.8,21.2,00.0,31.8,24.3,09.6,0000.0,0003.38,0001.40,0000.83
2023-02-09 01:05:00,,0821.8,5.00,0.00,22.8,21.2,00.0,31.8,24.3,09.5,0000.0,0003.45,0001.38,0000.82
2023-02-09 01:06:00,,0821.8,5.00,0.00,22.8,21.2,00.0,31.8,24.4,09.5,0000.0,0003.46,0001.38,0000.81
2023-02-09 01:07:00,,0821.9,5.00,0.00,22.8,21.2,00.0,31.8,24.4,09.6,0000.0,0003.42,0001.36,0000.81
2023-02-09 01:08:00,,0822.0,5.00,0.00,22.8,21.2,00.0,31.8,24.3,09.7,0000.0,0003.36,0001.33,0000.80
2023-02-09 01:09:00,,0822.1,5.00,0.00,22.8,21.2,00.0,31.7,24.4,09.7,0000.0,0003.71,0001.29,0000.80
2023-02-09 01:10:00,,0821.9,5.00,0.00,22.8,21.2,00.0,31.7,24.4,09.7,0000.0,0003.90,0001.31,0000.81
2023-02-09 01:11:00,,0822.0,5.00,0.00,22.7,21.2,00.0,31.7,24.3,09.8,0000.0,0003.78,0001.31,0000.81
2023-02-09 01:12:00,,0822.0,4.97,0.00,22.7,21.2,00.0,31.7,24.3,09.8,0000.0,0003.52,0001.31,0000.80
2023-02-09 01:13:00,,0822.0,4.99,0.00,22.7,21.2,00.0,31.7,24.3,09.9,0000.0,0003.07,0001.26,0000.78
2023-02-09 01:14:00,,0822.0,4.99,0.00,22.7,21.2,00.0,31.7,24.4,09.9,0000.0,0002.97,0001.23,0000.79
2023-02-09 01:15:00,,0822.0,5.01,0.00,22.7,21.2,00.0,31.7,24.3,09.9,0000.0,0002.87,0001.18,0000.78
2023-02-09 01:16:00,,0822.0,5.00,0.00,22.7,21.2,00.0,31.7,24.3,09.9,0000.0,0002.90,0001.16,0000.78
2023-02-09 01:17:00,,0822.0,4.99,0.00,22.7,21.2,00.0,31.7,24.3,10.0,0000.0,0003.88,0001.17,0000.77
2023-02-09 01:18:00,,0822.1,5.00,0.00,22.7,21.2,00.0,31.7,24.3,10.2,0000.0,0003.91,0001.19,0000.77
2023-02-09 01:19:00,,0822.0,5.01,0.00,22.7,21.2,00.0,31.6,24.3,10.2,0000.0,0004.02,0001.21,0000.76
2023-02-09 01:20:00,,0822.0,5.01,0.00,22.7,21.2,00.0,31.6,24.3,10.4,0000.0,0004.43,0001.25,0000.77
2023-02-09 01:21:00,,0822.0,5.00,0.00,22.7,21.2,00.0,31.6,24.3,10.1,0000.0,0004.86,0001.23,0000.76
2023-02-09 01:22:00,,0822.0,4.97,0.00,22.7,21.1,00.0,31.6,24.3,10.1,0000.0,0005.06,0001.27,0000.77
2023-02-09 01:23:00,,0821.9,4.99,0.00,22.7,21.1,00.0,31.6,24.2,10.2,0000.0,0005.32,0001.32,0000.78
2023-02-09 01:24:00,,0821.9,5.00,0.00,22.7,21.1,00.0,31.6,24.2,10.3,0000.0,0005.37,0001.34,0000.78
2023-02-09 01:25:00,,0822.1,4.98,0.00,22.6,21.1,00.0,31.6,24.2,10.2,0000.0,0005.37,0001.33,0000.78
2023-02-09 01:26:00,,0821.9,4.98,0.00,22.6,21.1,00.0,31.6,24.3,10.2,0000.0,0005.57,0001.38,0000.79
2023-02-09 01:27:00,,0822.1,5.02,0.00,22.7,21.1,00.0,31.6,24.3,10.1,0000.0,0005.69,0001.41,0000.80
2023-02-09 01:28:00,,0822.3,5.00,0.00,22.7,21.1,00.0,31.6,24.3,10.2,0000.0,0004.55,0001.40,0000.80
2023-02-09 01:29:00,,0822.0,4.98,0.00,22.6,21.1,00.0,31.6,24.3,10.2,0000.0,0004.51,0001.37,0000.80
2023-02-09 01:30:00,,0821.9,4.99,0.00,22.6,21.1,00.0,31.6,24.3,10.4,0000.0,0004.56,0001.40,0000.80
2023-02-09 01:31:00,,0822.0,5.02,0.00,22.6,21.1,00.0,31.6,24.2,10.7,0000.0,0004.15,0001.36,0000.79
2023-02-09 01:32:00,,0822.1,4.98,0.00,22.6,21.1,00.0,31.6,24.1,11.1,0000.0,0003.02,0001.37,0000.79
2023-02-09 01:33:00,,0822.0,5.01,0.00,22.6,21.0,00.0,31.5,24.2,11.3,0000.0,0002.83,0001.32,0000.78
2023-02-09 01:34:00,,0821.9,4.99,0.00,22.6,21.0,00.0,31.5,24.2,11.4,0000.0,0002.64,0001.25,0000.76
2023-02-09 01:35:00,,0821.9,4.99,0.00,22.6,20.9,00.0,31.5,24.2,11.6,0000.0,0002.69,0001.27,0000.76
2023-02-09 01:36:00,,0821.8,5.01,0.00,22.5,20.9,00.0,31.5,24.1,11.9,0000.0,0002.53,0001.23,0000.75
2023-02-09 01:37:00,,0821.9,5.00,0.00,22.5,20.8,00.0,31.5,24.1,12.5,0000.0,0002.36,0001.18,0000.74
2023-02-09 01:38:00,,0821.9,4.99,0.00,22.5,20.8,00.0,31.5,24.1,13.0,0000.0,0002.19,0001.13,0000.73
2023-02-09 01:39:00,,0821.9,5.01,0.00,22.4,20.7,00.0,31.5,24.0,13.5,0000.0,0002.12,0001.08,0000.73
2023-02-09 01:40:00,,0821.8,5.00,0.00,22.4,20.7,00.0,31.5,24.0,14.1,0000.0,0002.07,0001.07,0000.72
2023-02-09 01:41:00,,0821.8,5.00,0.00,22.4,20.6,00.0,31.4,24.0,14.6,0000.0,0002.57,0001.07,0000.72
2023-02-09 01:42:00,,0821.9,5.00,0.00,22.4,20.6,00.0,31.4,23.9,15.0,0000.0,0003.12,0001.13,0000.73
2023-02-09 01:43:00,,0822.1,5.00,0.00,22.3,20.5,00.0,31.4,23.9,15.1,0000.0,0003.22,0001.16,0000.73
2023-02-09 01:44:00,,0821.9,5.00,0.00,22.3,20.5,00.0,31.4,23.8,15.1,0000.0,0003.40,0001.23,0000.74
2023-02-09 01:45:00,,0822.2,5.02,0.00,22.3,20.4,00.0,31.3,23.8,14.7,0000.0,0005.13,0001.36,0000.75
2023-02-09 01:46:00,,0822.3,5.01,0.00,22.2,20.4,00.0,31.3,23.8,14.5,0000.0,0006.03,0001.42,0000.75
2023-02-09 01:47:00,,0822.5,5.00,0.00,22.2,20.3,00.0,31.3,23.6,15.0,0000.0,0007.32,0001.55,0000.75
2023-02-09 01:48:00,,0822.6,5.01,0.00,22.2,20.2,00.0,31.3,23.5,15.4,0000.0,0007.81,0001.64,0000.76
2023-02-09 01:49:00,,0822.7,5.02,0.00,22.1,20.2,00.0,31.2,23.4,15.8,0000.0,0007.96,0001.68,0000.76
2023-02-09 01:50:00,,0822.6,4.99,0.00,22.1,20.2,00.0,31.2,23.4,15.9,0000.0,0008.05,0001.74,0000.76
2023-02-09 01:51:00,,0822.7,4.97,0.00,22.0,20.1,00.0,31.2,23.4,15.6,0000.0,0008.16,0001.79,0000.76
2023-02-09 01:52:00,,0822.6,5.00,0.00,22.0,20.1,00.0,31.2,23.4,15.6,0000.0,0008.04,0001.83,0000.76
2023-02-09 01:53:00,,0822.6,5.01,0.00,22.0,20.1,00.0,31.1,23.3,15.5,0000.0,0007.67,0001.79,0000.75
2023-02-09 01:54:00,,0822.6,5.02,0.00,21.9,20.1,00.0,31.1,23.3,15.6,0000.0,0007.65,0001.79,0000.75
2023-02-09 01:55:00,,0822.6,5.02,0.00,21.9,20.0,00.0,31.1,23.3,15.5,0000.0,0007.58,0001.72,0000.74
2023-02-09 01:56:00,,0822.5,5.02,0.00,21.9,20.0,00.0,31.0,23.4,15.5,0000.0,0006.36,0001.66,0000.73
2023-02-09 01:57:00,,0822.5,4.99,0.00,21.9,20.0,00.0,31.0,23.3,15.5,0000.0,0005.14,0001.59,0000.73
2023-02-09 01:58:00,,0822.4,4.93,0.00,21.9,20.5,00.0,30.9,23.6,15.5,0000.0,0004.12,0001.54,0000.73
2023-02-09 01:59:00,,0822.4,4.95,0.00,22.0,21.5,00.0,30.9,23.9,15.3,0000.0,0003.43,0001.55,0000.73
